Flag for Germany Weather past 2 weeks in Freiberg, Saxony, Germany

Now
16 °F

Light snow. Partly cloudy.


Feels Like: 5 °F
Forecast: 20 / 26 °F
Wind: 8 mph from Northeast

Location: Dresden-Klotzsche

Current Time: Dec 28, 2014 at 8:25:53 AM

Latest Report: Dec 28, 2014 at 7:50 AM


Visibility: 5 mi

Pressure: 30.04 "Hg

Humidity: 86%

Dew point: 12 °F

Location of FreibergLocation

Historic Weather in Freiberg — Graph

°F

Freiberg temperature yesterday

Maximum temperature yesterday: 25 °F (at 12:20 AM)
Minimum temperature yesterday: 19 °F (at 10:50 PM)
Average temperature yesterday: 23 °F

Past Weeks' High & Low Weather Summary

 TemperatureHumidityPressure
High54 °F (Dec 18, 10:50 PM)100% (Dec 13, 8:50 AM)30.30 "Hg (Dec 13, 8:50 AM)
Low16 °F (Dec 28, 5:20 AM)62% (Dec 15, 3:20 PM)29.68 "Hg (Dec 17, 4:20 PM)
Average40 °F84%29.95 "Hg
* Reported Dec 13 7:20 AM — Dec 28 7:20 AM, Freiberg, Weather by CustomWeather, © 2014

Note: Actual official high and low records may vary slightly from our data, if they occured in-between our weather recording intervals... More about our weather records

Advertising

Freiberg weather history for previous 24 hours

 ConditionsComfort  
Time TempWeatherWind HumidityBarometerVisibility
7:20 AM
Dec 28
16 °FLight snow. Passing clouds.8 mph86%30.01 "HgN/A
6:50 AM16 °FLight snow. Passing clouds.9 mph86%29.98 "HgN/A
6:20 AM16 °FPassing clouds.10 mph86%29.95 "HgN/A
5:50 AM16 °FPassing clouds.8 mph86%29.95 "HgN/A
5:20 AM16 °FPassing clouds.15 mph86%29.92 "HgN/A
4:20 AM18 °FPassing clouds.14 mph86%29.89 "HgN/A
3:50 AM18 °FPassing clouds.14 mph86%29.86 "HgN/A
3:20 AM18 °FPassing clouds.14 mph86%29.86 "HgN/A
2:50 AM18 °FPassing clouds.13 mph86%29.83 "HgN/A
2:20 AM18 °FPartly cloudy.14 mph86%29.83 "HgN/A
1:50 AM18 °FPassing clouds.16 mph86%29.83 "HgN/A
1:20 AM18 °FPartly cloudy.16 mph86%29.80 "HgN/A
12:50 AM18 °FPassing clouds.15 mph86%29.80 "HgN/A
12:20 AM18 °FPassing clouds.14 mph93%29.80 "Hg6 mi
11:50 PM
Dec 27
19 °FPassing clouds.17 mph86%29.77 "Hg6 mi
11:20 PM19 °FPassing clouds.14 mph86%29.77 "Hg6 mi
10:50 PM19 °FPassing clouds.15 mph93%29.74 "HgN/A
10:20 PM21 °FPartly cloudy.15 mph86%29.74 "HgN/A
9:50 PM21 °FMostly cloudy.15 mph93%29.74 "HgN/A
9:20 PM23 °FOvercast.15 mph86%29.71 "HgN/A
8:50 PM23 °FClear.15 mph86%29.71 "Hg10 mi
8:20 PM23 °FClear.14 mph86%29.71 "Hg10 mi
7:50 PM23 °FClear.15 mph86%29.71 "Hg10 mi
7:20 PM23 °FClear.13 mph86%29.71 "Hg10 mi
6:50 PM23 °FClear.12 mph86%29.71 "Hg10 mi
6:20 PM23 °FClear.10 mph86%29.71 "Hg10 mi
5:50 PM23 °FClear.10 mph86%29.71 "Hg10 mi
5:20 PM25 °FClear.10 mph80%29.71 "Hg10 mi
4:50 PM25 °FClear.10 mph80%29.71 "Hg10 mi
4:20 PM25 °FClear.12 mph80%29.71 "Hg10 mi
3:50 PM25 °FSunny.10 mph86%29.71 "Hg10 mi
3:20 PM25 °FSunny.9 mph86%29.71 "Hg10 mi
2:50 PM25 °FSunny.9 mph86%29.74 "Hg10 mi
2:20 PM25 °FSunny.10 mph86%29.74 "Hg10 mi
1:50 PM25 °FSunny.12 mph86%29.74 "Hg10 mi
1:20 PM25 °FSunny.14 mph86%29.74 "Hg10 mi
12:50 PM25 °FSunny.12 mph86%29.77 "Hg10 mi
12:20 PM25 °FSunny.13 mph80%29.77 "Hg10 mi
11:50 AM25 °FSunny.13 mph80%29.80 "Hg10 mi
11:20 AM25 °FSunny.12 mph80%29.80 "Hg10 mi
10:50 AM25 °FSunny.10 mph80%29.83 "Hg10 mi
10:20 AM25 °FSunny.14 mph86%29.86 "Hg10 mi
9:50 AM25 °FSunny.13 mph80%29.86 "Hg10 mi
9:20 AM23 °FSunny.12 mph93%29.86 "Hg10 mi
8:50 AM23 °FSunny.10 mph86%29.89 "Hg10 mi
8:20 AM23 °FSunny.10 mph86%29.92 "Hg10 mi
Weather by CustomWeather, © 2014

See weather overviewHow to use our weather pages